KILEMING2 Weather Reports


Display with metric or nautical units.
time (UTC)temp
F
wind
direction
speed
MPH
gust
MPH
rain 1hr
in
rain 24hr
in
rain mn
in
humidity
%
barometer
mb
20260906111559 66 360 0.0 0.0 0.00 0.00 0.00 96 1016.5
20260906110057 66 360 0.0 0.0 0.00 0.00 0.00 96 1016.3
20260906104557 66 360 0.0 0.0 0.00 0.00 0.00 96 1016.1
20260906103055 67 360 0.0 0.0 0.00 0.00 0.00 96 1015.9
20260906101552 67 360 0.0 0.0 0.00 0.00 0.00 96 1016.0
20260906100051 67 360 0.0 0.0 0.00 0.00 0.00 96 1015.7
20260906094602 68 360 0.0 0.0 0.00 0.00 0.00 96 1015.7
20260906093050 68 360 0.0 0.0 0.00 0.00 0.00 96 1015.6
20260906091600 69 360 0.0 0.0 0.00 0.00 0.00 96 1015.6
20260906090045 69 360 0.0 0.0 0.00 0.00 0.00 96 1015.6
20260906084542 70 360 0.0 2.0 0.00 0.00 0.00 96 1015.5
20260906083041 70 360 1.0 3.0 0.00 0.00 0.00 95 1015.7
20260906081543 70 360 1.0 2.0 0.00 0.00 0.00 95 1015.7
20260906080041 71 360 2.0 3.0 0.00 0.00 0.00 95 1015.5
20260906074546 71 360 2.0 4.0 0.00 0.00 0.00 95 1015.5
20260906073040 71 360 2.0 4.0 0.00 0.00 0.00 95 1015.6
20260906071536 71 360 2.0 4.0 0.00 0.00 0.00 95 1015.8
20260906070035 71 360 1.0 3.0 0.00 0.00 0.00 95 1015.7
20260906064536 71 360 1.0 3.0 0.00 0.00 0.00 95 1015.7
20260906063037 71 360 1.0 3.0 0.00 0.00 0.00 94 1015.8
20260906061533 71 360 1.0 3.0 0.00 0.00 0.00 94 1015.7
20260906060032 71 360 2.0 4.0 0.00 0.00 0.00 94 1015.7
20260906054539 71 360 2.0 6.0 0.00 0.00 0.00 94 1015.6
20260906053029 71 360 3.0 5.0 0.00 0.00 0.00 93 1015.5
20260906051528 71 360 2.0 4.0 0.00 0.00 0.00 94 1015.5
20260906050023 70 360 2.0 3.0 0.00 0.00 0.00 94 1015.3
20260906044522 70 360 1.0 3.0 0.00 0.00 0.00 93 1015.2
20260906043029 71 360 2.0 3.0 0.00 0.00 0.00 92 1014.8
20260906041519 71 360 1.0 4.0 0.00 0.00 0.00 92 1014.7
20260906040019 71 360 3.0 6.0 0.00 0.00 0.00 91 1014.7
20260906034519 71 360 3.0 6.0 0.00 0.00 0.00 91 1014.8
20260906033023 71 360 4.0 10.0 0.00 0.00 0.00 91 1014.8
20260906031517 71 360 5.0 9.0 0.00 0.00 0.00 92 1014.6
20260906030020 70 360 5.0 9.0 0.00 0.00 0.00 92 1014.7
20260906024512 71 360 5.0 9.0 0.00 0.00 0.00 92 1014.7
20260906023011 71 360 4.0 8.0 0.00 0.00 0.00 93 1014.4
20260906021508 71 360 4.0 6.0 0.00 0.00 0.00 93 1014.3
20260906020010 71 360 3.0 5.0 0.00 0.00 0.00 93 1014.2
20260906014507 72 360 2.0 4.0 0.00 0.00 0.00 92 1014.2
20260906013003 72 360 2.0 4.0 0.00 0.00 0.00 92 1014.1
20260906011608 73 360 2.0 5.0 0.00 0.00 0.00 91 1014.0
20260906010059 73 360 2.0 4.0 0.00 0.00 0.00 91 1014.0
20260906004604 74 360 2.0 4.0 0.00 0.00 0.00 90 1013.8
20260906003102 75 360 1.0 4.0 0.00 0.00 0.00 89 1013.6
20260906001555 76 360 1.0 4.0 0.00 0.00 0.00 87 1013.5
20260906000058 77 360 3.0 5.0 0.00 0.00 0.00 86 1013.4
20260905234552 78 360 4.0 8.0 0.00 0.00 0.00 85 1013.4
20260905233052 79 360 3.0 6.0 0.00 0.00 0.00 84 1013.2
20260905231553 80 360 3.0 6.0 0.00 0.00 0.00 83 1013.0
20260905230054 81 360 3.0 6.0 0.00 0.00 0.00 83 1012.9
20260905224553 82 360 3.0 6.0 0.00 0.00 0.00 82 1013.0
20260905223050 82 360 4.0 10.0 0.00 0.00 0.00 80 1012.8
20260905221552 83 53 4.0 10.0 0.00 0.00 0.00 79 1012.7
20260905220049 84 40 5.0 11.0 0.00 0.00 0.00 79 1012.5
20260905214548 85 52 5.0 10.0 0.00 0.00 0.00 77 1012.6
20260905213048 86 40 4.0 9.0 0.00 0.00 0.00 77 1012.3
20260905211552 88 42 6.0 10.0 0.00 0.00 0.00 74 1012.2
20260905210050 89 53 5.0 9.0 0.00 0.00 0.00 74 1012.2
20260905204547 89 31 7.0 13.0 0.00 0.00 0.00 73 1012.2
20260905203046 88 17 4.0 13.0 0.00 0.00 0.00 74 1012.3
20260905201545 89 11 4.0 11.0 0.00 0.00 0.00 75 1012.4
20260905200044 89 11 3.0 9.0 0.00 0.00 0.00 73 1012.3
20260905194543 89 322 3.0 9.0 0.00 0.00 0.00 74 1012.3
20260905193043 90 12 3.0 8.0 0.00 0.00 0.00 73 1012.4
20260905191542 90 26 3.0 9.0 0.00 0.00 0.00 74 1012.3
20260905190041 89 31 2.0 9.0 0.00 0.00 0.00 77 1012.4
20260905184557 89 28 4.0 9.0 0.00 0.00 0.00 76 1012.6
20260905183047 89 21 2.0 6.0 0.00 0.00 0.00 78 1012.7
20260905181547 89 34 4.0 10.0 0.00 0.00 0.00 77 1012.8
20260905180043 89 322 2.0 9.0 0.00 0.00 0.00 77 1012.8
20260905174538 89 31 2.0 10.0 0.00 0.00 0.00 76 1012.7
20260905173038 90 30 3.0 8.0 0.00 0.00 0.00 75 1012.8
20260905171540 90 28 2.0 8.0 0.00 0.00 0.00 75 1012.8
20260905170035 89 25 4.0 10.0 0.00 0.00 0.00 76 1013.0
20260905164534 89 360 4.0 12.0 0.00 0.00 0.00 77 1013.1
20260905163030 88 360 3.0 8.0 0.00 0.00 0.00 76 1013.1
20260905161529 87 360 3.0 8.0 0.00 0.00 0.00 78 1013.0
20260905160028 87 360 2.0 8.0 0.00 0.00 0.00 81 1013.0
20260905154523 86 34 2.0 6.0 0.00 0.00 0.00 83 1013.1
20260905153021 86 36 2.0 6.0 0.00 0.00 0.00 83 1013.0
20260905151523 86 23 2.0 6.0 0.00 0.00 0.00 83 1013.0
20260905150017 85 26 3.0 6.0 0.00 0.00 0.00 83 1013.0
20260905144513 84 360 2.0 4.0 0.00 0.00 0.00 83 1012.8
20260905143010 83 360 1.0 4.0 0.00 0.00 0.00 86 1012.8
20260905141507 82 360 2.0 4.0 0.00 0.00 0.00 86 1012.5
20260905140005 81 360 1.0 3.0 0.00 0.00 0.00 88 1012.6
20260905134600 80 360 1.0 4.0 0.00 0.00 0.00 90 1013.0
20260905133056 79 360 0.0 2.0 0.00 0.00 0.00 91 1013.0
20260905131553 78 360 2.0 4.0 0.00 0.00 0.00 93 1012.8
20260905130052 77 360 2.0 4.0 0.00 0.00 0.00 94 1012.6
20260905124551 76 360 1.0 4.0 0.00 0.00 0.00 95 1012.5
20260905123056 76 360 0.0 2.0 0.00 0.00 0.00 95 1012.5
20260905121550 75 360 0.0 3.0 0.00 0.00 0.00 96 1012.4
20260905120050 74 360 0.0 4.0 0.00 0.00 0.00 96 1012.1
20260905114549 74 360 2.0 4.0 0.00 0.00 0.00 96 1011.9
20260905113051 74 360 1.0 4.0 0.00 0.00 0.00 96 1011.9